Regional Weather Roundup
Issued by NWS Newport/Morehead, NC

Current Version | Previous Version | Graphics & Text | Print | Product List | Glossary On
Versions: 1 2 3 4 5 6 7 8 9 10 11 12 13 14 15 16 17 18 19 20 21 22 23 24 25 26 27 28 29 30 31 32 33 34 35 36 37 38 39 40 41 42 43 44 45 46 47 48 49 50
000 ASUS42 KMHX 011710 RWRMHX WEATHER ROUNDUP FOR EASTERN NORTH CAROLINA NATIONAL WEATHER SERVICE NEWPORT/MOREHEAD CITY NC 1200 PM EST SUN FEB 01 2015 NOTE: "FAIR" INDICATES FEW OR NO CLOUDS BELOW 12,000 FEET WITH NO SIGNIFICANT WEATHER AND/OR OBSTRUCTIONS TO VISIBILITY NCZ015>017-031-032-045>047-102-103-011800- NORTH COAST CITY SKY/WX TMP DP RH WIND PRES REMARKS EDENTON SUNNY 46 21 37 SE3 30.25F ELIZABETH CITY MOSUNNY 43 22 43 NE6 30.28F KITTY HAWK PTSUNNY 41 24 51 W3 30.27F MANTEO CLOUDY 43 23 45 NW3 30.29F $$ NCZ045>047-081-094-103-104-011800- CENTRAL COAST CITY SKY/WX TMP DP RH WIND PRES REMARKS FRISCO PTSUNNY 47 29 49 W8 30.29F SWANQUARTER N/A 48 N/A N/A S1 30.21F $$ NCZ095-097-098-100-101-011800- SOUTHERN COAST CITY SKY/WX TMP DP RH WIND PRES REMARKS BEAUFORT CLOUDY 50 33 52 SW9 30.27F CEDAR ISLAND N/A 54 N/A N/A S5G13 30.30F JACKSONVILLE CLOUDY 51 23 33 S8 30.28F PINEY ISLAND N/A N/A N/A N/A MISG 30.26F WILMINGTON PTSUNNY 56 32 40 S8 30.28F $$ NCZ011>013-027>030-043-044-078>080-089-090>093-098-011800- COASTAL PLAIN CITY SKY/WX TMP DP RH WIND PRES REMARKS AHOSKIE SUNNY 46 18 33 SE3 30.25F CLINTON CLOUDY 52 28 39 S6 30.27F ELIZABETHTOWN MOSUNNY 56 22 27 SW13 30.27F GOLDSBORO CLOUDY 51 23 33 SW12 30.25F GREENVILLE CLOUDY 52 27 37 SW5 30.26F HAVELOCK CLOUDY 54 21 27 SW10 30.29F KENANSVILLE CLOUDY 50 23 34 SW6 30.28F KINSTON CLOUDY 52 21 30 SW14 30.28F NEW BERN PTSUNNY 56 22 26 SW10 30.29F RICHLANDS CLOUDY 50 25 37 S9 30.28F ROCKY MOUNT CLOUDY 51 24 34 SW9 30.26S WASHINGTON MOSUNNY 51 23 33 SW9 30.26F WHITEVILLE MOSUNNY 58 26 29 S13 30.26F $$ AMZ130-135-150-152-154-156-158-170-250-252-270-ANZ085-086-088-633-658-670-011800- MARINE OBSERVATIONS STATION/POSITION TIME TEMP WIND PRES WAVE SWELL AIR SEA DIR/SP/G HT/PER HT/PER (UTC) (F) (DEG/KT/KT) (MB) (FT/S) (FT/S) CHESAPEAKE LIGHT 1600 40 90/ 12/ 13 1026.2 64 E VA BEACH 1700 44 47 70/ 6/ 8 1024.8 4/ 7 3/ 7 DUCK 1700 40 40 260/ 4/ 5 1024.9 2 E DUCK 1700 40 N/A 2/ 6 10 NE DUCK 1700 43 N/A 2/ 7 OREGON INLET 1700 42 36 270/ 4/ 5 1025.8 13E OREGON INLT 1700 42 N/A 4/10 2/11 HATTERAS CG 1700 46 47 270/ 8/ 13 1026.3 DIAMOND BUOY 1700 53 71 270/ 14/ 17 1025.8 5/10 5/10 17 S OCRACOKE NOT AVBL CAPE LOOKOUT 1600 49 270/ 7/ 10 1026.8 BEAUFORT LAB 1700 49 45 230/ 2/ 6 1025.1 27 SE WRIGHTSVLE NOT AVBL 5 SE WRIGHTSVLE 1600 51 51 220/ 4/ 6 1026.8 225 S CAPE HAT 1630 60 70 230/ 2/ 6 1027.9 8/11 8/11 41 SE CHARLESTON 1700 62 71 180/ 10/ 14 1025.4 4/11 3/11 $$

USA.gov is the U.S. government's official web portal to all federal, state and local government web resources and services.